TimeCDT,TemperatureF,Dew PointF,Humidity,Sea Level PressureIn,VisibilityMPH,Wind Direction,Wind SpeedMPH,Gust SpeedMPH,PrecipitationIn,Events,Conditions,WindDirDegrees,DateUTC
12:53 AM,63.0,51.1,65,29.88,10.0,SSE,15.0,-,N/A,,Clear,150,2012-10-03 05:53:00
1:53 AM,62.1,51.1,67,29.86,10.0,SE,12.7,-,N/A,,Clear,140,2012-10-03 06:53:00
2:53 AM,61.0,51.1,70,29.86,10.0,SSE,11.5,-,N/A,,Clear,150,2012-10-03 07:53:00
3:53 AM,60.1,51.1,72,29.83,10.0,SSE,12.7,-,N/A,,Clear,150,2012-10-03 08:53:00
4:53 AM,60.1,50.0,69,29.82,10.0,SSE,11.5,-,N/A,,Clear,160,2012-10-03 09:53:00
5:53 AM,59.0,50.0,72,29.83,10.0,SSE,10.4,-,N/A,,Clear,160,2012-10-03 10:53:00
6:53 AM,59.0,48.9,69,29.84,10.0,SSE,10.4,-,N/A,,Clear,150,2012-10-03 11:53:00
7:53 AM,57.9,48.0,70,29.84,10.0,SSE,8.1,-,N/A,,Clear,160,2012-10-03 12:53:00
8:53 AM,60.1,46.9,62,29.85,10.0,SSE,10.4,-,N/A,,Clear,160,2012-10-03 13:53:00
9:53 AM,64.9,48.9,56,29.86,10.0,South,11.5,-,N/A,,Clear,170,2012-10-03 14:53:00
10:53 AM,69.1,50.0,51,29.86,10.0,South,11.5,-,N/A,,Clear,190,2012-10-03 15:53:00
11:53 AM,75.0,50.0,41,29.85,10.0,SSW,9.2,-,N/A,,Clear,200,2012-10-03 16:53:00
12:53 PM,79.0,50.0,36,29.84,10.0,SSW,10.4,-,N/A,,Clear,210,2012-10-03 17:53:00
1:53 PM,81.0,48.9,33,29.81,10.0,WSW,9.2,-,N/A,,Clear,250,2012-10-03 18:53:00
2:53 PM,82.9,48.0,29,29.80,10.0,Variable,6.9,-,N/A,,Clear,0,2012-10-03 19:53:00
3:53 PM,84.9,48.0,28,29.79,10.0,SSW,6.9,-,N/A,,Clear,210,2012-10-03 20:53:00
4:53 PM,86.0,46.0,25,29.78,10.0,SSW,8.1,-,N/A,,Clear,200,2012-10-03 21:53:00
5:53 PM,87.1,46.9,25,29.78,10.0,South,8.1,-,N/A,,Clear,180,2012-10-03 22:53:00
6:53 PM,84.9,46.0,26,29.79,10.0,South,9.2,-,N/A,,Clear,180,2012-10-03 23:53:00
7:53 PM,81.0,48.0,31,29.81,10.0,South,8.1,-,N/A,,Clear,180,2012-10-04 00:53:00
8:53 PM,78.1,55.0,45,29.83,10.0,South,15.0,20.7,N/A,,Clear,170,2012-10-04 01:53:00
9:53 PM,75.0,54.0,48,29.84,10.0,South,16.1,23.0,N/A,,Clear,180,2012-10-04 02:53:00
10:53 PM,73.0,54.0,51,29.86,10.0,South,15.0,-,N/A,,Clear,180,2012-10-04 03:53:00
11:53 PM,72.0,53.1,51,29.86,10.0,South,17.3,26.5,N/A,,Clear,190,2012-10-04 04:53:00